Location: Tamazert
(32.6352°N, 5.2072°W)
Time: 05:18:58
(UTC+00:00)

Vanguard 2 - Pass Details

Date: 08 October 2022
Orbit: 553 x 2933 km, 32.9° (Epoch: 26 November)

Event Time Altitude Azimuth Distance (km) Brightness Sun altitude
Rises 16:25:02 0° 284° (WNW) 5,406 12.8 17.9°
Reaches altitude 10° 16:28:09 10° 281° (WNW) 4,671 12.7 17.3°
Maximum altitude 16:42:16 67° 203° (SSW) 2,917 10.9 14.5°
Drops below altitude 10° 17:00:01 10° 126° (SE) 5,703 11.6 10.9°
Sets 17:04:19 0° 124° (ESE) 6,611 11.9 10.0°
